View Data : List Evapotranspiration (ETo ) Reports


 
Search Evapotranspiration Reports
Station Fields:
Location:
Date Range:
Start Date:   End Date:
Searched: Report date on 7/16/2018.
Showing 1 - 50 of 125 Records. <Back  Page   Next>
DateTimeStation NumberStation NameGaugeReadingRefill LevelEvap AmtView
7/16/2018  12:00 AM  MN-AA-5  East Bethel 3.1 NE 6.14  0.10   
7/16/2018  5:00 AM  IN-OW-9  Spencer 7.0 S 3.28  0.07   
7/16/2018  5:00 AM  IN-PT-12  Valparaiso 4.3 SW 4.70  0.07   
7/16/2018  5:00 AM  NY-CQ-22  Fredonia 0.8 WNW 4.05  0.16   
7/16/2018  5:10 AM  NM-SF-70  Santa Fe 10.5 S 4.91  0.26   
7/16/2018  5:30 AM  AL-MD-25  Huntsville 4.4 ENE 9.59  0.01   
7/16/2018  5:30 AM  IN-TN-1  Atlanta 4.4 W 9.95  0.10   
7/16/2018  5:30 AM  NH-CH-21  Keene 2.0 SE 8.45  0.13   
7/16/2018  5:36 AM  WI-MC-4  Two Rivers 1.4 N 5.44  0.10   
7/16/2018  5:45 AM  WA-SJ-28  Lopez Island 3.9 NNE 8.35  0.13   
7/16/2018  6:00 AM  CA-SJ-5  Lodi 1.0 NNW 8.45  0.20   
7/16/2018  6:00 AM  CO-ME-79  Grand Junction 3.9 WSW 7.90  0.25   
7/16/2018  6:00 AM  MD-MG-54  Germantown 4.6 NNE 2.20  0.08   
7/16/2018  6:00 AM  PA-CN-13  Boalsburg 0.4 E 8.70  0.10   
7/16/2018  6:00 AM  TX-ER-4  Stephenville 2.6 NNW 7.10  0.30   
7/16/2018  6:10 AM  MO-CP-7  Boonville 0.5 ESE 4.41  0.24   
7/16/2018  6:30 AM  IL-WN-2  Roscoe 1.6 ESE 8.50  0.10   
7/16/2018  6:30 AM  IA-LN-7  Central City 6.7 W 9.60  0.08   
7/16/2018  6:30 AM  OH-DR-1  Bradford 2.3 NW 10.08  0.14   
7/16/2018  6:55 AM  VA-HV-8  Montpelier 4.8 E 7.38  0.10   
7/16/2018  7:00 AM  AZ-MR-326  Phoenix 6.3 SSW 4.53  0.16   
7/16/2018  7:00 AM  AZ-PN-50  Saddlebrooke 1.5 SW 7.92  0.09   
7/16/2018  7:00 AM  CA-SD-132  Descanso 3.7N 7.38  0.28   
7/16/2018  7:00 AM  CA-SD-12  Poway 3.2NE 4.80  0.16   
7/16/2018  7:00 AM  CA-SN-100  Glen Ellen 1.9 NNW 5.90  0.10   
7/16/2018  7:00 AM  CA-TH-11  Red Bluff 5.1 NNW 10.39  0.29   
7/16/2018  7:00 AM  CO-BO-57  Nederland 5.8 E 6.97  0.03   
7/16/2018  7:00 AM  CO-EP-24  Black Forest 2.1 SSE 2.87  0.07   
7/16/2018  7:00 AM  CO-GF-47  Carbondale 0.5 W 4.03  0.18   
7/16/2018  7:00 AM  CO-GN-18  Crested Butte 6.2 N 4.91  0.04   
7/16/2018  7:00 AM  CO-LR-854  Loveland 2.3 NW 0.08  0.08   
7/16/2018  7:00 AM  CO-LR-623  Fort Collins 6.1 SW 6.15  0.04   
7/16/2018  7:00 AM  CO-LG-6  Sterling 3.7 NNE 5.20  0.40   
7/16/2018  7:00 AM  FL-MR-66  The Villages 3.7 NNW 6.33  0.08   
7/16/2018  7:00 AM  GA-FY-28  Fayetteville 2.1 NNE 1.35  0.09   
7/16/2018  7:00 AM  IL-CP-1  Homer 2.0 N 9.78  0.10   
7/16/2018  7:00 AM  IL-GY-1  Carbon Hill 3.1 N 10.64  0.15   
7/16/2018  7:00 AM  IL-WF-14  El Paso 5.2 NNW 6.11  0.09   
7/16/2018  7:00 AM  IN-AL-5  Huntertown 2.6 ESE 7.92  0.16   
7/16/2018  7:00 AM  IN-BN-53  Zionsville 4.3 NNW 3.43  0.12   
7/16/2018  7:00 AM  IN-HR-5  Milltown 5.7 SSE 1.28  0.07   
7/16/2018  7:00 AM  IN-MR-13  Speedway 6.2 SSW 8.45  0.12   
7/16/2018  7:00 AM  IN-NB-23  Columbia City 8.4 N 7.47  0.18   
7/16/2018  7:00 AM  IN-PT-133  Valparaiso 2.2 WNW 1.92  0.18   
7/16/2018  7:00 AM  IA-TY-2  New Market 4.7 N 10.45 0.00 0.14   
7/16/2018  7:00 AM  KS-RL-42  Manhattan 0.7 WNW 6.40  0.50   
7/16/2018  7:00 AM  KS-SG-111  Wichita 5.9 WSW 8.23  0.19   
7/16/2018  7:00 AM  KY-FR-1  Frankfort 3.3 NE 1.10  0.07   
7/16/2018  7:00 AM  KY-ME-8  Harrodsburg 10.8 NW 2.40  0.03   
7/16/2018  7:00 AM  ME-LN-1  Newcastle 2.1 SW 8.79  0.07